EST,Max TemperatureF,Mean TemperatureF,Min TemperatureF,Max Dew PointF,MeanDew PointF,Min DewpointF,Max Humidity, Mean Humidity, Min Humidity, Max Sea Level PressureIn, Mean Sea Level PressureIn, Min Sea Level PressureIn, Max VisibilityMiles, Mean VisibilityMiles, Min VisibilityMiles, Max Wind SpeedMPH, Mean Wind SpeedMPH, Max Gust SpeedMPH,PrecipitationIn, CloudCover, Events, WindDirDegrees
2012-11-1,50,40,30,32,25,19,87,52,37,29.84,29.81,29.79,10,10,10,17,8,23,0.00,5,,290
2012-11-2,46,40,35,32,29,27,75,62,46,30.09,30.03,29.93,10,10,10,12,5,18,0.00,5,,323
2012-11-3,41,34,28,30,28,27,93,70,61,30.21,30.18,30.15,10,10,10,6,1,,0.00,4,,1
2012-11-4,44,40,35,28,27,27,75,62,49,30.21,30.19,30.17,10,10,10,10,3,,0.00,5,,313
2012-11-5,44,32,21,27,25,18,86,65,46,30.21,30.18,30.14,10,9,5,5,1,,0.00,0,,71
2012-11-6,46,34,23,28,26,19,86,62,49,30.08,29.99,29.93,10,9,5,10,4,,0.00,4,,147
2012-11-7,50,44,37,32,30,28,75,62,43,30.13,30.05,29.98,10,10,10,9,6,,0.00,2,,55
2012-11-8,46,36,26,36,31,25,93,73,57,30.22,30.18,30.15,10,6,3,10,2,,0.00,7,,221
2012-11-9,57,44,30,41,37,28,93,65,48,30.16,30.09,30.03,10,7,2,12,6,,0.00,4,,158
2012-11-10,66,60,53,48,43,41,62,53,46,30.07,30.03,29.98,10,10,10,12,8,16,0.00,3,,186
2012-11-11,68,60,53,46,45,41,62,53,46,30.06,29.99,29.92,10,10,10,21,13,36,0.00,1,,177
2012-11-12,39,36,32,37,25,18,93,67,48,30.24,30.12,29.99,10,10,5,16,13,24,0.00,5,Rain,253
2012-11-13,39,32,26,21,19,18,69,56,42,30.51,30.46,30.40,10,10,10,9,4,,0.00,4,,266
2012-11-14,41,32,24,25,22,19,80,63,45,30.56,30.49,30.43,10,10,7,9,3,,0.00,0,,137
2012-11-15,44,34,24,28,26,21,93,69,49,30.41,30.37,30.34,10,7,3,5,1,,0.00,0,,0
2012-11-16,51,38,24,30,26,21,93,59,35,30.48,30.46,30.42,10,7,3,0,0,,0.00,0,,-1
2012-11-17,53,40,26,30,29,23,93,59,41,30.58,30.54,30.50,10,8,3,7,2,,0.00,0,,140
2012-11-18,57,44,30,32,29,27,93,58,31,30.48,30.44,30.39,10,7,3,7,3,,0.00,0,,112
2012-11-19,55,45,35,34,31,28,81,55,38,30.32,30.26,30.19,10,10,7,7,2,,0.00,1,,161
2012-11-20,51,48,46,43,39,37,82,66,58,30.15,30.10,30.08,10,9,5,5,0,,0.00,8,,295
2012-11-21,53,44,35,46,42,36,100,90,72,30.25,30.20,30.17,5,3,0,6,2,,0.00,3,Fog,177
2012-11-22,,,,,,,,,,,,,,,,,,,,,,
2012-11-23,39,36,32,30,22,19,70,63,60,30.12,29.98,29.87,10,10,10,25,15,34,0.00,8,,280
2012-11-24,32,31,28,21,20,19,69,64,60,30.19,30.17,30.14,10,10,10,10,8,,0.00,8,,279
2012-11-25,41,36,30,27,24,21,70,61,53,29.92,29.88,29.86,10,10,10,10,8,,0.00,2,,266
2012-11-26,37,30,24,27,21,19,93,64,48,30.25,30.20,30.13,10,9,7,7,3,,0.00,7,,329
2012-11-27,35,32,28,19,17,12,64,55,48,30.39,30.32,30.26,10,10,10,10,4,,0.00,4,,244
2012-11-28,42,35,28,25,20,16,69,59,49,30.35,30.32,30.27,10,10,10,13,7,,0.00,4,,255
2012-11-29,48,39,30,30,26,21,75,57,40,30.28,30.22,30.16,10,10,10,13,7,16,0.00,1,,194
2012-11-30,50,44,37,30,30,28,70,58,47,30.17,30.12,30.08,10,10,10,6,5,,0.00,4,,121